Location: Huesca
(42.1318°N, 0.4078°W)
Time: 23:42:24
(UTC+02:00)

CUTE 1.7 + AOD 2 - Visible Passes

Search period start: 24 April 2024 00:00
Search period end: 04 May 2024 00:00
Orbit: 570 x 588 km, 97.8° (Epoch: 23 April)

Date Brightness Start Highest point End Pass type
(mag) Time Alt. Az. Time Alt. Az. Time Alt. Az.
24 Apr ? 05:26:00 10° NNE 05:30:02 63° E 05:33:16 16° S visible
25 Apr ? 05:30:43 10° NNE 05:34:47 72° ESE 05:38:09 15° S visible
26 Apr ? 05:35:25 10° NNE 05:39:31 82° ESE 05:43:02 14° S visible
27 Apr ? 05:40:06 10° NNE 05:44:12 87° W 05:47:52 13° SSW visible
28 Apr ? 05:44:47 10° N 05:48:51 77° WNW 05:52:41 11° SSW visible
29 Apr ? 05:49:27 10° N 05:53:30 68° WNW 05:57:28 10° SSW visible
30 Apr ? 04:21:22 10° ENE 04:22:27 11° E 04:23:30 10° ESE visible
30 Apr ? 05:54:06 10° N 05:58:07 60° WNW 06:02:07 10° SSW visible
01 May ? 04:25:22 10° ENE 04:27:06 12° E 04:28:48 10° ESE visible
01 May ? 05:58:44 10° N 06:02:42 53° WNW 06:06:40 10° SSW visible
02 May ? 04:29:34 10° ENE 04:31:44 14° E 04:33:52 10° ESE visible
02 May ? 06:03:21 10° N 06:07:16 46° WNW 06:11:10 10° SW visible
03 May ? 04:33:49 10° NE 04:36:20 16° E 04:38:48 10° SE visible
03 May ? 06:07:58 10° N 06:11:49 41° WNW 06:15:38 10° SW visible
